Погода в Прудах

Россия / Республика Крым     45°14′08″N   34°42′00″E
темп.,
°C
ветер,
м/с
пор.,
м/с
влажн.,
%
обл.,
%
осадки,
мм/ч
давл.,
гПа
погр.,
м
24 июня, чт
чт2400:00+20з349271 0.0 101489
03:00+19зюз479456 0.0 1014172
06:00+19зюз368867 0.0 1014159
09:00+25з3467100 0.9 1013441
12:00+27зюз2263100 1.4 1013733
15:00+28в2265100 1.4 1013577
18:00+28зюз1161100 0.3 1013606
21:00+20з359057 5.6 1014110
25 июня, пт
пт2500:00+20всв11873 0.1 101411
03:00+20ю118585 0.2 101213
06:00+20з118963 1.5 101337
09:00+24ссв017138 1.6 1012363
12:00+28всв22585 0.0 10121107
15:00+30всв335117 0.0 10111634
18:00+28ссз226026 0.2 1010588
21:00+22з228647 0.3 101022
26 июня, сб
сб2600:00+21зюз34895 0.0 101177
03:00+20юз249012 0.0 101076
06:00+21зюз23875 0.0 101085
09:00+26ю016765 0.0 1010508
12:00+30всв225396 0.0 10101349
15:00+31с22446 0.0 10081927
18:00+29всв555728 0.1 1008653
21:00+23ююз22795 0.9 100830
27 июня, вс
вс2700:00+22зюз22805 0.0 100920
03:00+21з37876 0.0 1010172
06:00+21юз22835 0.0 101069
09:00+27ююв22615 0.0 1009589
12:00+31зсз224812 0.1 10091787
15:00+28з466293 1.1 1009217
18:00+27с3466100 0.8 1010653
21:00+24ююз1279100 1.4 101020
28 июня, пн
пн2800:00+22юз48795 0.2 1011208
03:00+21юз4107683 0.2 1010219
06:00+21зюз497729 0.0 1011251
09:00+26зюз67700 0.0 1011705
12:00+28з66602 0.1 10111201
15:00+28з775749 0.3 10111614
18:00+26з576719 0.9 10111011
21:00+22зсз39804 1.2 1012221